Location: Carnières
(50.1682°N, 3.3474°E)
Time: 04:44:31
(UTC+00:00)

MOZ.5/SAFIR/RUBIN 5/SL-8 - Pass Details

Date: 12 August 2024
Orbit: 671 x 698 km, 98.3° (Epoch: 08 September)

Event Time Altitude Azimuth Distance (km) Brightness Sun altitude
Exits shadow 00:01:59 17° 98° (E) 1,737 5.8 -24.9°
Maximum altitude 00:04:12 23° 60° (ENE) 1,452 5.7 -24.9°
Drops below altitude 10° 00:07:55 10° 9° (N) 2,169 7.4 -24.9°
Sets 00:10:33 0° 355° (N) 3,094 8.5 -24.8°
